This demonstration page uses our WeatherBlox Daily Observations layout. Learn more.

Left ArrowRight Arrow

47.50024, -111.30081

Hourly Observations for August 12, 2022

Temp ( °F °C ) Dew Point ( °F °C ) Humidity (%) Winds ( mph kmh ) Pressure ( in mb ) Visibility ( mi km ) Precip ( " mm )
12:53 am 00:53 Mostly Cloudy with Nearby Thunderstorms 77 25 38 3.3 24 24 WSW 23 37 30.01 1016 10 16 0.00 0.00
1:04 am 01:04 Cloudy with Thunderstorms 76 24.4 40 4.4 27 27 SW 12 19 29.91 1013 10 16 0.00 0.00
1:11 am 01:11 Cloudy with Thunderstorms 72 22.2 45 7.2 38 38 WSW 16 26 29.95 1014 10 16 0.01 0.13
1:19 am 01:19 Cloudy with Nearby Thunderstorms 72 22.2 49 9.4 44 44 WNW 23 37 29.94 1014 10 16 0.01 0.13
1:28 am 01:28 Cloudy with Light Rain 73 22.8 49 9.4 42 42 WNW 10 17 29.95 1014 10 16 0.01 0.13
1:53 am 01:53 Cloudy 76 24.4 44 6.7 32 32 N 12 19 30.01 1016 10 16 0.01 0.13
2:53 am 02:53 Mostly Clear 72 22.2 45 7.2 38 38 S 9 15 30.00 1016 10 16 0.00 0.00
3:53 am 03:53 Mostly Cloudy 74 23.3 43 6.1 33 33 WNW 9 15 29.99 1016 10 16 0.00 0.00
4:53 am 04:53 Clear 67 19.4 47 8.3 49 49 SW 8 13 29.99 1016 10 16 0.00 0.00
5:53 am 05:53 Clear 64 17.8 47 8.3 54 54 Calm 30.01 1016 10 16 0.00 0.00
6:53 am 06:53 Sunny 65 18.3 47 8.3 52 52 Calm 30.03 1017 10 16 0.00 0.00
7:53 am 07:53 Sunny 72 22.2 49 9.4 44 44 NW 5 7 30.04 1017 10 16 0.00 0.00
8:53 am 08:53 Sunny 75 23.9 53 11.7 46 46 NW 5 7 30.05 1018 10 16 0.00 0.00
9:53 am 09:53 Sunny 78 25.6 54 12.2 43 43 Calm 30.05 1018 10 16 0.00 0.00
10:53 am 10:53 Sunny 82 27.8 49 9.4 32 32 Calm 30.03 1017 10 16 0.00 0.00
11:53 am 11:53 Sunny 87 30.6 48 8.9 26 26 VRB 6 9 30.02 1017 10 16 0.00 0.00
12:53 pm 12:53 Sunny 89 31.7 46 7.8 23 23 ESE 3 6 30.00 1016 10 16 0.00 0.00
1:53 pm 13:53 Sunny 90 32.2 45 7.2 21 21 Calm 29.97 1015 10 16 0.00 0.00
2:53 pm 14:53 Sunny 93 33.9 46 7.8 20 20 VRB 6 9 29.94 1014 10 16 0.00 0.00
3:53 pm 15:53 Sunny 93 33.9 46 7.8 20 20 S 5 7 29.91 1013 10 16 0.00 0.00
4:53 pm 16:53 Sunny 95 35 45 7.2 18 18 SSE 7 11 29.89 1012 10 16 0.00 0.00
5:53 pm 17:53 Sunny 93 33.9 44 6.7 19 19 NE 8 13 29.88 1012 10 16 0.00 0.00
6:53 pm 18:53 Sunny 89 31.7 43 6.1 20 20 NE 9 15 29.88 1012 10 16 0.00 0.00
7:28 pm 19:28 Mostly Cloudy with Nearby Thunderstorms 73 22.8 51 10.6 46 46 W 28 44 29.86 1011 6 10 0.01 0.13
7:53 pm 19:53 Cloudy with Thunderstorms 66 18.9 57 13.9 73 73 NW 16 26 30.07 1018 10 16 0.03 0.76
8:10 pm 20:10 Cloudy with Light Rain 67 19.4 58 14.4 73 73 NW 9 15 29.97 1015 7 11 0.01 0.13
8:53 pm 20:53 Clear 66 18.9 58 14.4 75 75 NNE 6 9 30.03 1017 10 16 0.02 0.51
9:53 pm 21:53 Clear 66 18.9 59 15 78 78 ESE 13 20 30.04 1017 10 16 0.00 0.00
10:53 pm 22:53 Clear 65 18.3 58 14.4 78 78 ESE 8 13 30.04 1017 10 16 0.00 0.00
11:53 pm 23:53 Clear 64 17.8 58 14.4 80 80 ENE 5 7 30.01 1016 10 16 0.00 0.00

Powered by AerisWeather